Home > Weather > Mobile > Past weeks

Flag for U.S.A. Weather for the Past 2 Weeks in Mobile, Alabama, U.S.A.

Now
35 °F

Clear.


Feels Like: 30 °F
Forecast: 36 / 51 °F
Wind: 6 mph from West

Location: Mobile Downtown Airport

Current Time: Feb 9, 2016 at 6:51:49 AM

Latest Report: Feb 9, 2016 at 5:53 AM


Visibility: 10 mi

Pressure: 30.09 "Hg

Humidity: 64%

Dew point: 24 °F

Location of MobileLocation

Historic Weather in Mobile — Graph

°F

Mobile Temperature Yesterday

Maximum temperature yesterday: 60 °F (at 12:53 PM)
Minimum temperature yesterday: 40 °F (at 11:53 PM)
Average temperature yesterday: 50 °F

High & Low Weather Summary for the Past Weeks

 TemperatureHumidityPressure
High68 °F (Jan 31, 11:53 AM)100% (Jan 26, 4:53 AM)30.51 "Hg (Jan 26, 4:53 AM)
Low32 °F (Feb 5, 6:53 AM)21% (Feb 8, 3:53 PM)29.85 "Hg (Feb 3, 2:53 AM)
Average53 °F73%30.11 "Hg
* Reported Jan 25 4:53 AM — Feb 9 4:53 AM, Mobile, Weather by CustomWeather, © 2016

Note: Actual official high and low records may vary slightly from our data, if they occured in-between our weather recording intervals... More about our weather records

Advertising

Mobile Weather History for the Previous 24 Hours

 ConditionsComfort  
Time TempWeatherWind HumidityBarometerVisibility
4:53 AM
Tue, Feb 9
34 °FClear.6 mph64%30.08 "Hg10 mi
3:53 AM35 °FClear.5 mph61%30.07 "Hg10 mi
2:53 AM36 °FClear.5 mph62%30.07 "Hg10 mi
1:53 AM37 °FClear.6 mph60%30.08 "Hg10 mi
12:53 AM39 °FClear.5 mph50%30.09 "Hg10 mi
11:53 PM
Mon, Feb 8
40 °FClear.5 mph51%30.09 "Hg10 mi
10:53 PM41 °FClear.5 mph47%30.09 "Hg10 mi
9:53 PM44 °FClear.5 mph38%30.07 "Hg10 mi
8:53 PM45 °FClear.6 mph37%30.06 "Hg10 mi
7:53 PM48 °FClear.10 mph33%30.06 "Hg10 mi
6:53 PM49 °FClear.17 mph33%30.02 "Hg10 mi
5:53 PM51 °FPassing clouds.10 mph28%29.98 "Hg10 mi
4:53 PM55 °FPassing clouds.14 mph23%29.94 "Hg10 mi
3:53 PM57 °FPassing clouds.18 mph21%29.93 "Hg10 mi
2:53 PM58 °FSunny.21 mph24%29.92 "Hg10 mi
1:53 PM59 °FPassing clouds.17 mph26%29.93 "Hg10 mi
12:53 PM60 °FPassing clouds.10 mph31%29.94 "Hg10 mi
11:53 AM59 °FLight rain. Sunny.17 mph31%29.97 "Hg10 mi
10:53 AM58 °FSunny.12 mph46%30.00 "Hg10 mi
9:53 AM56 °FSunny.9 mph53%30.04 "Hg10 mi
8:53 AM52 °FSunny.10 mph64%30.05 "Hg10 mi
7:53 AM48 °FSunny.9 mph71%30.03 "Hg10 mi
6:53 AM44 °FSunny.7 mph76%30.05 "Hg10 mi
Weather by CustomWeather, © 2016

See weather overviewHow to use our weather pages